Home   Weather   Sydney   Past weeks

Flag for Australia Past Weather in Sydney, New South Wales, Australia — Yesterday and Last 2 Weeks

Now
70 °F

Passing clouds.


Feels Like: 70 °F
Forecast: 64 / 78 °F
Wind: 13 mph from Northeast

Location: Sydney Airport

Current Time: Dec 11, 2016 at 5:27:32 am

Latest Report: Dec 11, 2016 at 5:00 am


Visibility: N/A

Pressure: 30.12 "Hg

Humidity: 69%

Dew Point: 59 °F

Location of SydneyLocation

Past Weather in Sydney — Graph

°F

Sydney Temperature Yesterday

Maximum temperature yesterday: 73 °F (at 11:00 am)
Minimum temperature yesterday: 63 °F (at 5:00 am)
Average temperature yesterday: 69 °F

High & Low Weather Summary for the Past Weeks

 TemperatureHumidityPressure
High95 °F (Dec 2, 1:30 pm)94% (Nov 29, 3:00 am)30.18 "Hg (Nov 29, 3:00 am)
Low63 °F (Nov 26, 4:30 am)12% (Dec 9, 2:30 pm)29.42 "Hg (Dec 8, 5:00 pm)
Average73 °F67%29.88 "Hg
* Reported Nov 26 4:00 am — Dec 11 4:00 am, Sydney, Weather by CustomWeather, © 2016

Note: Actual official high and low records may vary slightly from our data, if they occured in-between our weather recording intervals... More about our weather records

Advertising

Sydney Weather History for the Previous 24 Hours

Scroll right to see more
 ConditionsComfort  
Time TempWeatherWind HumidityBarometerVisibility
4:00 am
Sun, Dec 11
70 °FPassing clouds.10 mph69%30.12 "HgN/A
3:30 am70 °FPassing clouds.13 mph69%30.12 "HgN/A
3:00 am70 °FPassing clouds.12 mph69%30.12 "HgN/A
2:30 am70 °FPassing clouds.14 mph69%30.12 "HgN/A
1:30 am70 °FPassing clouds.13 mph64%30.15 "HgN/A
1:00 am70 °FPassing clouds.13 mph64%30.15 "HgN/A
12:30 am70 °FPartly cloudy.14 mph64%30.15 "HgN/A
12:00 am70 °FPartly cloudy.13 mph64%30.15 "HgN/A
11:30 pm
Sat, Dec 10
70 °FPartly cloudy.15 mph64%30.15 "HgN/A
11:00 pm70 °FPassing clouds.15 mph60%30.15 "HgN/A
10:00 pm70 °FPassing clouds.15 mph60%30.15 "HgN/A
9:30 pm70 °FPassing clouds.14 mph60%30.15 "HgN/A
9:00 pm72 °FPartly cloudy.17 mph57%30.15 "HgN/A
8:00 pm70 °FPassing clouds.18 mph60%30.12 "HgN/A
7:30 pm70 °FPartly sunny.17 mph60%30.12 "HgN/A
7:00 pm72 °FScattered clouds.17 mph57%30.09 "HgN/A
6:30 pm72 °FScattered clouds.20 mph57%30.09 "HgN/A
6:00 pm72 °FPassing clouds.16 mph57%30.09 "HgN/A
5:30 pm72 °FPassing clouds.20 mph53%30.09 "HgN/A
5:00 pm72 °FPassing clouds.21 mph53%30.09 "HgN/A
4:30 pm72 °FPassing clouds.21 mph53%30.09 "HgN/A
4:00 pm72 °FPassing clouds.18 mph53%30.12 "HgN/A
3:30 pm73 °FPassing clouds.18 mph50%30.12 "HgN/A
3:00 pm73 °FPassing clouds.18 mph50%30.12 "HgN/A
2:30 pm72 °FScattered clouds.17 mph50%30.12 "HgN/A
2:00 pm72 °FScattered clouds.18 mph53%30.15 "HgN/A
1:00 pm72 °FScattered clouds.18 mph50%30.15 "HgN/A
12:30 pm72 °FScattered clouds.16 mph53%30.15 "HgN/A
12:00 pm72 °FBroken clouds.15 mph50%30.15 "HgN/A
11:30 am70 °FScattered clouds.13 mph57%30.18 "HgN/A
11:00 am73 °FScattered clouds.12 mph50%30.18 "HgN/A
10:30 am72 °FScattered clouds.9 mph50%30.18 "HgN/A
10:00 am70 °FScattered clouds.10 mph57%30.18 "HgN/A
9:30 am72 °FPartly sunny.9 mph53%30.18 "HgN/A
9:00 am68 °FScattered clouds.8 mph60%30.18 "HgN/A
8:30 am68 °FScattered showers. Scattered clouds.8 mph60%30.18 "HgN/A
8:00 am66 °FScattered showers. Scattered clouds.9 mph64%30.18 "HgN/A
7:30 am64 °FScattered showers. Scattered clouds.6 mph73%30.18 "HgN/A
7:00 am64 °FScattered showers. Scattered clouds.6 mph68%30.15 "HgN/A
6:30 am64 °FPartly sunny.3 mph68%30.15 "HgN/A
6:00 am63 °FPassing clouds.6 mph77%30.12 "HgN/A
5:30 am63 °FPassing clouds.5 mph77%30.12 "HgN/A
5:00 am63 °FPassing clouds.7 mph68%30.12 "HgN/A
Weather by CustomWeather, © 2016

See weather overviewHow to use our weather pages